Dewpoint
35 31 29 31 33 34 31 31 30 30 29 29 31 34 34 36 36 37 37 37 37 35 34 32 33 34 34 36 39 42 43 43 43 43 43 42 41 41 40 40 39 39 39 39
27 32 36 32 33 34 35 32 30 31 30 31 32 35 36 35 33 34 35 36 36 35 33 32 32 33 34 37 41 44 43 43 43 42 41 41 41 40 40 39 39 38 38 38
21 27 26 25 34 34 35 37 33 29 30 32 31 31 32 36 33 33 34 34 35 35 33 31 32 33 35 40 43 43 43 43 42 41 40 40 40 40 37 35 35 36 37 36
20 23 16 26 31 28 33 35 35 32 30 31 31 32 34 36 35 32 32 33 33 33 32 31 32 34 39 42 42 42 42 42 41 40 39 39 38 37 35 35 36 36 36 35
17 14 19 18 20 23 32 35 35 34 33 32 34 34 33 34 37 34 32 32 33 32 31 30 32 36 40 41 42 41 41 40 40 39 39 38 37 35 34 34 35 35 35 34
16 14 11 16 18 24 21 22 29 36 36 36 34 32 32 34 37 34 32 31 31 30 30 32 34 37 39 40 40 40 40 39 39 38 38 37 36 34 33 34 35 36 35 34
18 16 17 15 16 18 21 25 37 37 37 37 37 36 35 39 37 34 31 30 29 28 29 31 35 37 38 39 39 40 39 39 38 37 37 36 34 33 33 33 35 35 34 32
19 17 14 26 33 32 33 38 39 39 38 37 38 39 38 39 37 35 31 29 28 28 30 32 35 36 37 38 39 39 39 38 37 36 36 35 34 33 33 34 34 33 33 32
22 23 30 38 39 39 40 39 39 39 39 37 37 38 39 39 37 35 32 28 28 29 30 34 35 35 36 36 38 38 38 37 36 35 35 35 35 34 34 34 34 33 33 32
21 21 23 25 28 34 39 40 40 41 39 37 36 37 38 39 37 34 31 29 29 29 30 34 35 34 35 37 38 38 37 36 37 36 35 35 36 36 35 34 34 33 33 33
23 25 27 26 31 32 31 33 36 39 41 41 37 37 38 39 35 32 30 29 29 29 31 33 33 34 36 37 38 37 36 36 36 36 36 35 35 35 35 35 34 34 34 34
21 23 29 27 30 30 34 36 37 40 40 42 39 39 37 37 34 30 29 29 29 30 32 32 33 34 35 37 37 36 35 36 36 36 36 35 33 32 34 33 34 34 34 34
26 26 27 28 30 31 33 34 39 42 43 41 36 37 34 33 31 31 29 29 29 31 32 32 32 33 36 36 36 35 35 35 35 34 34 34 34 33 33 33 34 34 34 34
26 28 28 32 34 34 34 37 41 41 41 33 30 31 30 29 30 30 30 31 32 32 32 32 32 35 36 37 35 35 35 34 35 34 34 34 33 33 33 32 32 33 34 34
24 28 35 35 30 28 30 29 30 30 28 28 27 27 27 27 28 31 32 33 34 34 34 34 34 33 35 35 34 33 34 35 34 34 34 33 33 33 32 31 30 30 29 31
26 27 31 31 27 26 26 27 26 27 27 27 28 29 30 30 30 30 31 31 30 31 32 32 31 30 33 33 32 31 33 33 33 33 33 32 32 32 31 32 31 31 29 30
29 29 29 29 31 29 29 30 28 29 29 29 29 29 29 29 29 28 29 30 30 30 31 31 29 30 31 31 31 30 30 30 30 32 32 32 32 32 32 32 31 31 30 26
34 32 30 31 32 34 34 33 32 31 30 30 30 30 30 29 28 29 29 29 29 28 29 29 29 29 30 30 30 29 28 28 28 28 28 29 31 31 31 31 31 31 31 29
36 32 33 35 34 34 34 34 33 32 33 33 32 31 30 29 28 28 29 29 29 28 28 29 29 30 30 29 29 28 28 28 29 30 30 30 30 31 31 31 31 32 30 29
37 36 36 35 35 34 32 32 32 32 31 30 30 29 28 28 28 28 28 27 28 28 29 29 29 29 29 28 28 28 29 29 29 30 31 31 31 32 32 30 31 32 31 30
36 36 34 34 32 32 32 31 30 29 29 30 29 28 27 27 27 27 27 26 28 29 29 28 29 29 29 27 27 27 26 26 29 30 31 31 32 32 32 32 32 32 32 30
31 30 30 31 30 30 30 29 28 28 27 27 26 26 26 25 25 25 26 26 27 27 31 31 31 31 30 27 28 29 31 32 32 32 32 32 32 32 32 32 32 32 32 30
30 30 30 29 27 27 28 27 28 27 26 26 26 26 25 25 26 26 26 28 30 31 31 31 28 31 32 32 32 32 32 32 32 32 32 32 32 32 32 32 32 32 31 29
27 27 27 28 28 27 24 25 25 25 25 25 25 26 26 25 26 28 30 30 30 29 29 24 26 28 27 29 30 32 32 32 32 32 32 32 32 32 32 32 32 32 29 23
27 27 27 26 25 25 25 25 25 25 25 25 25 26 26 26 27 27 28 29 28 28 25 26 28 29 30 29 29 30 30 32 32 31 30 30 31 32 32 31 32 31 30 28
26 26 26 27 27 26 26 26 25 26 26 25 26 26 26 26 26 26 26 27 26 28 29 30 29 29 29 29 29 31 31 31 31 29 30 30 30 30 30 30 30 31 30 28
27 27 26 26 26 26 26 26 25 25 26 26 25 26 26 25 25 28 28 29 29 28 28 29 30 30 30 30 31 31 31 30 30 29 29 30 29 29 29 30 30 29 28 23
Lifted_Index
2 2 1 0 1 1 1 2 2 3 4 4 5 6 6 6 5 4 4 4 3 3 3 3 4 5 6 7 9 10 11 11 11 11 11 11 11 11 11 11 12 12 13 14
3 3 1 0 0 0 0 1 2 3 4 5 5 6 6 5 4 4 4 4 3 3 3 3 3 4 6 7 9 10 10 11 11 11 11 11 12 12 12 13 13 14 14 14
5 4 3 1 1 0 0 1 2 3 5 5 5 5 5 5 4 4 4 4 3 3 3 3 3 4 6 7 9 10 10 10 10 11 11 12 13 13 14 14 14 14 14 14
6 5 4 3 3 2 1 1 2 3 5 5 5 4 4 4 5 5 4 4 3 3 3 3 4 5 6 7 8 9 9 10 10 11 12 13 14 14 14 14 14 14 14 14
5 5 4 4 4 3 2 2 2 3 4 5 4 3 3 4 5 5 4 3 3 2 2 3 4 5 6 7 8 8 9 10 11 12 13 13 14 14 14 14 14 14 14 14
4 4 3 4 5 5 4 2 3 3 4 4 4 3 3 4 4 4 3 3 3 3 3 3 4 6 6 6 7 8 9 10 11 12 13 13 14 14 14 14 15 15 14 14
3 3 4 5 6 5 4 3 3 3 3 4 3 3 3 3 3 3 2 2 2 3 3 3 5 6 6 6 7 8 9 10 12 13 13 14 14 14 14 14 15 15 14 14
2 3 4 6 5 3 3 3 3 3 3 3 3 3 3 2 2 2 1 1 2 2 3 4 5 6 5 6 7 9 10 11 12 13 13 14 14 14 14 14 15 15 14 14
2 3 4 5 4 2 1 2 3 3 2 2 2 2 2 1 1 1 1 1 2 2 3 4 5 6 5 6 8 9 10 11 12 13 13 14 14 14 14 14 14 14 13 13
3 3 4 5 4 3 2 3 4 4 3 2 2 1 1 1 1 1 0 1 2 2 3 4 5 6 6 7 8 9 10 11 12 12 13 13 14 14 14 14 14 14 13 13
4 4 4 5 5 4 4 4 5 5 3 2 1 1 1 1 1 1 0 1 1 2 2 3 5 6 7 8 8 9 10 10 11 11 12 13 13 14 14 14 13 13 13 13
4 4 4 5 5 5 5 5 5 5 4 2 2 2 2 1 1 1 1 1 1 1 2 3 5 6 7 8 8 9 9 9 10 11 12 12 13 13 13 12 12 12 12 12
4 3 3 5 5 5 5 5 4 5 4 3 2 2 2 1 1 1 1 1 1 1 2 3 5 7 8 9 9 9 8 9 10 11 11 12 12 12 12 11 11 11 11 11
4 3 3 4 4 4 4 3 3 4 4 4 3 2 2 1 1 1 1 0 0 1 2 3 5 8 9 9 9 9 8 9 10 11 11 12 12 12 11 11 10 10 10 10
4 3 2 3 3 3 2 2 2 2 3 3 3 3 2 2 1 1 1 1 1 2 3 5 7 8 9 10 9 9 9 10 11 11 11 11 11 11 10 10 10 9 9 9
4 3 3 2 2 2 1 1 1 2 2 3 3 3 3 3 2 2 3 4 4 5 6 7 8 9 9 9 9 9 10 10 11 11 11 11 11 10 10 10 10 9 9 8
3 3 3 2 2 2 2 2 2 3 3 3 3 4 4 4 4 4 6 6 7 8 9 9 9 9 9 10 10 10 11 11 11 11 11 11 11 11 10 10 10 9 8 7
2 2 2 2 2 3 3 4 4 4 4 4 4 5 6 6 6 7 8 9 9 9 10 10 10 10 10 10 11 11 12 12 12 12 11 11 11 11 11 10 10 9 8 7
1 1 1 2 3 4 4 4 4 4 4 5 5 6 7 7 8 9 9 9 10 10 10 11 11 11 11 11 12 12 12 12 12 12 12 12 11 11 10 10 9 8 7 7
1 1 1 2 3 4 4 4 5 5 6 6 7 8 8 8 9 9 9 10 10 10 10 11 11 11 12 12 13 13 13 13 12 12 11 11 10 10 9 8 8 7 7 7
1 1 1 2 3 3 4 5 7 7 8 8 8 9 9 9 9 9 9 10 10 11 11 11 12 12 13 13 13 13 13 12 12 11 10 10 10 9 8 8 7 7 7 7
2 2 3 3 4 5 6 7 8 9 9 9 9 9 9 10 10 10 10 11 11 12 12 12 12 13 13 13 13 12 12 11 11 10 10 9 9 8 8 7 7 7 7 7
5 5 5 5 6 6 7 8 9 9 9 9 9 9 10 10 10 11 11 12 12 12 12 12 12 12 12 12 11 11 10 10 10 10 10 9 9 8 7 7 8 8 8 8
6 6 6 6 7 7 8 8 8 8 9 9 10 10 10 11 11 11 12 12 12 12 12 12 11 11 10 10 10 9 9 9 10 10 9 9 8 7 7 7 8 8 8 8
5 5 6 6 6 7 8 8 8 8 9 10 10 11 11 11 11 11 11 11 11 11 10 10 10 9 9 8 8 8 8 9 9 9 8 8 7 7 7 7 7 8 8 8
4 4 5 5 6 6 7 7 8 8 9 10 10 10 11 11 11 11 10 10 9 9 9 8 8 8 7 7 8 8 8 8 8 8 7 7 7 7 7 7 7 7 8 8
3 4 4 5 5 5 6 7 7 8 9 9 9 10 10 11 10 10 9 8 8 8 7 7 7 7 7 7 7 8 9 8 8 8 8 8 7 7 7 7 7 8 8 8